SCP
0 0 0 0 0 0 0 0 0 0 0 0 0 0 0 0 0 0 0 0 0 0 0 0 0 0 0 0 0 1 1 1 1 1 1 1 1 1 1 1 1 0 0
0 0 0 0 0 0 0 0 0 0 0 0 0 0 0 0 0 0 0 0 0 0 0 0 0 0 0 0 0 0 0 0 1 1 1 1 1 1 1 0 0 0 0
0 0 0 0 0 0 0 0 0 0 0 0 0 0 0 0 0 0 0 0 0 0 0 0 0 0 0 0 0 0 0 0 0 0 0 0 0 0 0 0 0 0 0
0 0 0 0 0 0 0 0 0 0 0 0 0 0 0 0 0 0 0 0 0 0 0 0 0 0 0 0 0 0 0 0 0 0 0 0 0 0 0 0 0 0 0
0 0 0 0 0 0 0 0 0 0 0 0 0 0 0 0 0 0 0 0 0 0 0 0 0 0 0 0 0 0 0 0 0 0 0 0 0 0 0 0 0 0 0
0 0 0 0 0 0 0 0 0 0 0 0 0 0 0 0 0 0 0 0 0 0 0 0 0 0 0 0 0 0 0 0 0 0 0 0 0 0 0 0 0 0 0
0 0 0 0 0 0 0 0 0 0 0 0 0 0 0 0 0 0 0 0 0 0 0 0 0 0 0 0 0 0 0 0 0 0 0 0 0 0 0 0 0 0 0
0 0 0 0 0 0 0 0 0 0 0 0 0 0 0 0 0 0 0 0 0 0 0 0 0 0 0 0 0 0 0 0 0 0 0 0 0 0 0 0 0 0 0
0 0 0 0 0 0 0 0 0 0 0 0 0 0 0 0 0 0 0 0 0 0 0 0 0 0 0 0 0 0 0 0 0 0 0 0 0 0 0 0 0 0 0
0 0 0 0 0 0 0 0 0 0 0 0 0 0 0 0 0 0 0 0 0 0 0 0 0 0 0 0 0 0 0 0 0 0 0 0 0 0 0 0 0 0 0
0 0 0 0 0 0 0 0 0 0 0 0 0 0 0 0 0 0 0 0 0 0 0 0 0 0 0 0 0 0 0 0 0 0 0 0 0 0 0 0 0 0 0
0 0 0 0 0 0 0 0 0 0 0 0 0 0 0 0 0 0 0 0 0 0 0 0 0 0 0 0 0 0 0 0 0 0 0 0 0 0 0 0 0 0 0
0 0 0 0 0 0 0 0 0 0 0 0 0 0 0 0 0 0 0 0 0 0 0 0 0 0 0 0 0 0 0 0 0 0 0 0 0 0 0 0 0 0 0
0 0 0 0 0 0 0 0 0 0 0 0 0 0 0 0 0 0 0 0 0 0 0 0 0 0 0 0 0 0 0 0 0 0 0 0 0 0 0 0 0 0 0
0 0 0 0 0 0 0 0 0 0 0 0 0 0 0 0 0 0 0 0 0 0 0 0 0 0 0 0 0 0 0 0 0 0 0 0 0 0 0 0 0 0 0
0 0 0 0 0 0 0 0 0 0 0 0 0 0 0 0 0 0 0 0 0 0 0 0 0 0 0 0 0 0 0 0 0 0 0 0 0 0 0 0 0 0 0
0 0 0 0 0 0 0 0 0 0 0 0 0 0 0 0 0 0 0 0 0 0 0 0 0 0 0 0 0 0 0 0 0 0 0 0 0 0 0 0 0 0 0
0 0 0 0 0 0 0 0 0 0 0 0 0 0 0 0 0 0 0 0 0 0 0 0 0 0 0 0 0 0 0 0 0 0 0 0 0 0 0 0 0 0 0
0 0 0 0 0 0 0 0 0 0 0 0 0 0 0 0 0 0 0 0 0 0 0 0 0 0 0 0 0 0 0 0 0 0 0 0 0 0 0 0 0 0 0
0 0 0 0 0 0 0 0 0 0 0 0 0 0 0 0 0 0 0 0 0 0 0 0 0 0 0 0 0 0 0 0 0 0 0 0 0 0 0 0 0 0 0
0 0 0 0 0 0 0 0 0 0 0 0 0 0 0 0 0 0 0 0 0 0 0 0 0 0 0 0 0 0 0 0 0 0 0 0 0 0 0 0 0 0 0
0 0 0 0 0 0 0 0 0 0 0 0 0 0 0 0 0 0 0 0 0 0 0 0 0 0 0 0 0 0 0 0 0 0 0 0 0 0 0 0 0 0 0
0 0 0 0 0 0 0 0 0 0 0 0 0 0 0 0 0 0 0 0 0 0 0 0 0 0 0 0 0 0 0 0 0 0 0 0 0 0 0 0 0 0 0
0 0 0 0 0 0 0 0 0 0 0 0 0 0 0 0 0 0 0 0 0 0 0 0 0 0 0 0 0 0 0 0 0 0 0 0 0 0 0 0 0 0 0
0 0 0 0 0 0 0 0 0 0 0 0 0 0 0 0 0 0 0 0 0 0 0 0 0 0 0 0 0 0 0 0 0 0 0 0 0 0 0 0 0 0 0
0 0 0 0 0 0 0 0 0 0 0 0 0 0 0 0 0 0 0 0 0 0 0 0 0 0 0 0 0 0 0 0 0 0 0 0 0 0 0 0 0 0 0
Wind_Speed
21 20 17 11 6 7 8 9 9 8 6 5 5 5 4 4 4 3 4 4 4 4 4 3 3 3 3 3 4 3 4 3 2 4 5 5 5 5 3 3 4 4 3
22 22 20 15 10 9 10 10 11 10 9 6 5 4 4 3 2 3 3 3 3 3 3 4 3 3 2 3 3 4 3 2 3 4 4 5 5 5 3 3 2 1 1
22 22 22 21 16 11 11 10 11 10 10 8 5 4 4 4 5 5 4 3 3 3 3 4 4 4 4 3 3 3 4 3 3 3 3 4 5 5 5 4 2 1 1
21 21 21 22 20 16 12 12 12 11 10 9 8 9 7 7 7 5 4 4 4 4 3 3 4 4 4 4 4 3 2 3 3 2 2 2 0 3 4 4 2 1 2
19 20 20 20 19 19 15 12 13 13 11 10 9 9 9 7 5 5 6 5 4 4 4 4 4 5 4 5 5 4 4 3 3 3 3 3 3 4 4 4 4 3 3
18 18 19 19 18 19 17 15 14 14 12 11 10 10 10 8 8 8 7 6 4 4 4 4 4 5 4 5 5 5 6 5 5 4 4 4 4 5 5 5 5 4 3
17 18 20 21 20 21 20 18 17 15 14 13 12 11 10 10 10 9 8 7 5 5 4 3 4 4 4 5 5 6 6 7 7 7 6 6 6 4 5 5 5 5 4
18 19 20 20 20 20 20 20 20 18 16 15 14 12 11 8 8 8 7 6 5 3 2 3 4 4 5 5 5 5 7 6 7 8 8 6 6 5 6 6 6 6 6
20 20 20 20 20 20 20 21 21 20 17 15 14 12 11 9 7 5 4 3 2 1 1 2 4 5 5 5 6 5 7 6 7 7 7 7 6 6 6 7 7 8 8
18 19 19 19 19 19 19 19 20 21 19 16 12 8 8 6 5 3 3 2 2 2 3 4 5 6 6 7 7 6 6 7 7 5 7 7 6 6 6 7 8 8 9
20 20 20 19 18 17 17 17 18 19 17 13 8 6 5 4 4 4 3 2 3 3 4 5 6 7 8 8 8 9 8 8 8 8 8 9 9 7 6 7 8 9 9
21 23 23 21 18 16 15 15 14 15 15 12 6 1 2 3 3 3 3 3 3 4 4 5 6 6 7 7 8 8 8 8 8 8 8 9 7 10 9 8 9 9 9
26 26 25 22 17 14 13 12 11 11 11 9 6 3 2 2 2 3 3 4 4 4 4 4 5 5 5 5 5 4 3 2 2 3 3 5 6 9 8 9 8 7 7
29 28 25 22 18 14 12 10 9 8 8 8 7 5 5 3 3 3 4 4 2 2 3 3 4 4 4 4 4 4 5 5 6 6 7 8 7 6 5 3 3 3 5
29 27 25 22 19 18 13 8 6 6 6 6 6 5 5 4 3 4 3 3 2 2 2 3 4 5 5 6 6 7 7 7 7 7 8 8 11 13 9 6 5 4 1
28 28 27 24 21 19 14 7 4 4 4 4 5 5 5 5 5 4 4 2 1 2 3 4 6 7 6 9 10 7 6 6 6 5 5 5 8 10 11 12 10 8 5
28 28 25 22 19 17 11 4 2 3 3 4 5 5 5 5 5 4 4 3 2 3 4 5 5 7 9 11 10 8 5 5 4 4 4 4 4 5 5 5 5 4 5
26 24 20 18 16 11 4 3 4 4 5 5 6 6 6 6 5 4 4 3 2 2 3 4 4 5 7 9 8 5 4 4 4 4 5 6 6 6 8 7 6 6 4
22 19 16 14 11 7 5 5 6 6 6 7 7 8 8 7 5 4 3 3 2 1 2 3 4 4 5 8 5 2 2 2 3 4 5 6 6 7 9 8 7 7 6
18 15 13 11 10 10 8 8 8 8 8 8 8 8 8 7 6 5 4 3 2 1 1 2 3 4 5 7 6 3 2 3 3 3 3 4 7 9 10 8 6 7 7
17 13 12 12 11 11 9 9 9 9 8 7 7 7 7 7 6 5 4 4 3 2 2 3 3 4 4 4 4 5 2 3 3 3 2 3 8 10 10 8 6 7 10
15 13 11 11 11 11 10 9 10 9 8 7 6 7 7 6 5 5 4 4 4 3 3 4 4 3 2 2 3 5 4 5 4 4 3 4 9 10 9 7 8 9 9
12 11 10 10 10 11 10 10 10 9 8 7 7 7 7 6 6 5 4 4 3 3 3 3 3 3 3 2 3 5 4 5 5 4 5 7 9 9 5 5 8 7 5
12 11 10 10 10 11 11 10 10 9 8 8 7 7 7 6 6 4 4 4 4 4 4 5 4 4 4 4 3 4 4 4 4 3 3 5 6 5 6 6 5 4 4
10 10 9 9 10 10 11 11 11 10 9 8 7 7 7 6 6 5 4 6 5 5 7 5 5 6 5 6 10 8 3 2 2 2 4 5 4 4 4 4 4 4 5
9 9 9 10 10 10 10 11 11 10 10 8 8 7 6 6 6 6 5 4 6 9 9 8 8 8 9 12 12 9 3 1 2 3 4 5 5 5 5 5 5 5 5
Wind_Direction
27 23 14 355 307 264 249 245 243 233 229 226 225 221 219 216 213 213 214 218 213 212 223 232 234 242 244 239 232 208 200 200 212 218 220 218 223 226 221 238 255 243 250
21 20 17 10 337 292 263 250 246 240 234 233 233 234 221 218 205 192 196 209 206 200 212 226 224 224 226 214 207 198 191 173 198 219 211 205 191 179 162 160 170 186 175
16 13 10 8 355 322 284 267 257 248 238 229 218 205 202 207 204 201 194 196 202 193 200 215 217 211 214 206 201 209 209 193 183 217 226 219 213 169 168 147 150 95 19
15 12 8 4 358 343 313 286 276 261 244 231 228 224 222 221 219 212 203 202 207 207 206 215 218 214 213 206 200 202 215 208 196 196 253 272 233 209 186 190 198 290 308
12 9 7 360 357 352 336 306 289 276 260 246 240 236 234 235 225 217 219 223 210 212 214 224 224 222 220 216 213 204 209 218 218 208 199 203 205 230 229 218 220 245 258
6 5 2 358 355 353 346 328 301 285 273 259 247 238 234 227 223 225 226 224 212 202 199 217 224 225 224 219 220 221 223 226 231 230 221 212 204 204 212 225 229 246 261
2 0 358 355 352 349 345 336 320 297 279 266 256 247 241 235 231 229 227 226 216 203 198 223 237 235 232 233 231 231 231 233 236 239 238 238 240 232 229 239 250 261 269
358 355 352 348 345 344 342 338 328 311 288 269 259 256 251 246 243 234 227 221 218 203 199 248 262 263 259 252 245 246 240 238 237 245 245 243 243 241 240 243 252 257 258
350 346 341 339 338 338 339 337 329 316 298 275 261 257 254 249 249 241 228 207 172 134 309 301 291 286 280 274 268 257 252 251 248 249 249 246 245 239 238 239 244 253 262
337 335 331 331 332 332 333 335 333 322 307 289 268 258 254 242 221 195 173 132 89 38 343 324 308 297 290 284 277 272 267 263 257 257 254 248 246 242 235 235 239 244 254
329 327 325 324 324 325 330 335 338 334 325 308 275 239 226 209 184 148 118 74 46 18 345 326 309 297 291 284 276 269 269 265 263 258 259 259 256 252 244 238 238 239 242
322 321 320 319 320 322 325 332 338 341 343 340 331 297 181 165 139 107 88 61 35 14 349 323 308 301 292 284 276 272 268 265 265 268 268 267 266 259 255 247 242 240 239
319 320 319 317 317 318 318 325 336 340 342 344 343 351 19 67 89 85 61 44 26 356 339 321 312 308 302 293 286 277 273 277 299 318 308 303 284 268 258 251 247 241 234
319 319 319 316 318 318 310 311 326 336 340 344 350 358 9 16 42 59 49 37 13 357 354 345 349 355 15 32 44 59 67 63 54 46 39 25 11 354 330 296 279 245 223
320 321 320 318 318 318 311 300 310 334 344 349 355 354 355 360 25 53 50 35 24 19 20 28 31 30 54 65 67 68 63 58 52 45 41 34 25 22 24 33 30 18 13
323 322 319 317 317 316 313 300 309 347 357 359 359 357 357 3 18 28 22 14 28 58 58 50 44 34 43 77 74 75 75 66 56 44 34 29 25 15 20 31 33 27 21
321 317 314 312 311 312 314 310 5 25 18 12 9 4 0 1 5 8 10 13 40 62 59 51 48 41 37 61 71 60 67 72 62 38 18 8 7 359 3 3 355 4 16
320 318 316 313 313 321 354 62 58 42 29 21 15 7 360 357 0 6 12 13 30 61 60 51 42 46 39 40 59 53 42 47 42 23 3 346 338 349 346 335 321 311 309
323 323 325 325 335 5 42 57 50 39 29 19 13 5 358 355 358 7 12 6 355 26 49 43 30 22 26 19 19 9 355 356 5 0 357 341 329 349 338 323 315 309 306
338 343 352 8 19 25 34 42 37 30 21 11 6 4 359 356 0 5 5 356 342 351 10 23 15 1 360 5 357 354 331 326 329 330 346 5 351 350 345 331 320 312 322
357 11 27 33 28 26 32 35 28 18 6 359 2 6 3 357 359 354 355 345 339 328 321 321 327 334 346 348 354 5 344 343 330 331 341 8 356 352 350 337 325 332 327
9 18 30 33 27 23 25 25 18 3 358 359 6 7 6 1 354 349 351 348 333 310 301 301 303 319 318 337 348 352 0 345 322 323 334 358 354 346 341 331 338 335 320
9 16 23 28 23 18 17 15 6 357 358 3 8 8 5 5 357 349 351 345 333 323 315 313 317 326 323 306 319 320 319 323 316 324 344 341 341 331 318 327 329 316 307
8 10 15 17 15 12 14 10 3 358 1 8 9 8 6 5 3 354 351 343 335 334 331 330 330 326 319 312 308 301 258 254 279 297 315 314 316 305 304 308 302 305 315
4 7 7 8 9 9 12 8 4 0 358 4 6 2 2 353 350 351 350 335 331 328 326 328 321 315 311 316 312 315 302 292 342 320 299 303 313 312 312 306 305 307 301
358 358 1 5 6 8 10 8 3 2 358 354 355 354 351 345 343 337 331 331 324 326 325 322 316 310 304 307 310 320 346 39 36 303 294 300 302 304 308 309 309 306 300